Volver al catálogo

STARLINK-38184

ActivoComunicacionesSSO
NORAD 100180·PAYLOAD·🇺🇸 United States

Lanzado Aug 1, 2026 desde Vandenberg Space Force Base

Loading…

Próximos Pases (próximas 24 horas)

TLE

ActualizadoSource: Space-Track

Época: Sep 14, 2026, 03:10 UTC

1 A0180U 26175B   26257.13209352  .00194287  00000-0  12742-2 0  9996
2 A0180  97.2829  99.2501 0002099  79.2173 280.9328 15.75187051  8171

Sigue STARLINK-38184 en tiempo real con AllMySat

Download on the App Store